Commit Graph

6073 Commits

Author SHA1 Message Date
David Rose 72da0ee5f1 clean up ConnectionRepository on exit 2009-12-05 07:17:53 +00:00
David Rose 0782c4c2e9 query game log even after application shuts down 2009-12-04 22:40:04 +00:00
David Rose 58dfbe0e9d better fallback for version 2009-12-04 16:52:59 +00:00
Arkady Trestman a8b76b9599 now handling setting by reference 2009-12-03 23:55:30 +00:00
Arkady Trestman 9c73a2344d additional error checking to prevent accidental range over-reference 2009-12-03 23:53:53 +00:00
David Rose b2d1bfa624 fail over from bogus mirror more gracefully 2009-12-03 23:24:29 +00:00
David Rose eb5acbd9b4 fix failure during redownload attempt 2009-12-03 23:03:38 +00:00
David Rose 1f4cbbb0e8 defer packageDir until it is known 2009-12-03 20:49:22 +00:00
David Rose 8f83de634f remove miles 2009-12-03 16:27:01 +00:00
rdb 1cbec3eef0 Include zlib1.dll 2009-12-02 17:37:30 +00:00
rdb 97982327f1 Forward XAUTHORITY variable to the plugin environment - this fixes a plugin issue in some cases on Unix 2009-12-02 17:03:24 +00:00
David Rose 0f7e4c7344 freshen root-level contents.xml too 2009-12-02 16:03:22 +00:00
David Rose 9f13f5334c fix additional problem with -r 2009-12-02 15:51:42 +00:00
David Rose f28a01b52b fix extra kill message 2009-12-02 15:32:18 +00:00
David Rose 8bcb52efdd fix super-mirror issue 2009-12-02 15:31:52 +00:00
rdb 8d3b22e3cc Add /usr/local/lib to search path, and /usr/PCBSD/local/lib on PC-BSD 2009-12-02 12:02:21 +00:00
rdb eaaff62ba5 Build pmerge.p3d too 2009-12-02 11:42:34 +00:00
David Rose 6be0f6bc28 oops, pdb 2009-12-02 04:05:05 +00:00
David Rose c5638bc1fd support disney-style Cg file 2009-12-02 03:34:54 +00:00
David Rose 61b92af51b missing import 2009-12-02 02:40:20 +00:00
David Rose f4ed61f659 support listening on a specific interface 2009-12-01 01:34:02 +00:00
David Rose e69b127292 build issue 2009-11-30 22:34:08 +00:00
Abhishek Nath a36f345131 Useful function to search through Distributed Object collection by class type 2009-11-30 21:26:10 +00:00
David Rose 590f95ed11 fix bug with conflicting prc filenames 2009-11-26 20:00:57 +00:00
rdb f872dfbfce "import *" shouldn't import __file__ or __name__ 2009-11-26 18:00:14 +00:00
rdb e6e80f62c6 Allow panda3d.dtoolconfig imports 2009-11-26 17:30:19 +00:00
David Rose e34cc4bb76 don't compress wav files by default 2009-11-25 23:43:38 +00:00
rdb b3d854e397 Some fixes 2009-11-25 14:06:26 +00:00
David Rose 90bc292c07 fix bug with alt_host 2009-11-25 01:34:03 +00:00
David Rose cdf186af65 fix bug in pmerge 2009-11-25 00:46:10 +00:00
David Rose 902804f39e dos2unix 2009-11-24 23:38:11 +00:00
David Rose ea40f600bb fix problems with packp3d -r 2009-11-24 23:37:21 +00:00
Darren Ranalli e6424f0577 prevent garbage leak 2009-11-24 02:20:05 +00:00
David Rose df2a0b0025 getModelPath() for server too 2009-11-24 01:47:13 +00:00
David Rose 863662c542 enable p3dplugin.log by default too 2009-11-24 00:30:06 +00:00
David Rose f9e90d497d exclude two system dylibs 2009-11-24 00:17:52 +00:00
David Rose e691d3c80f minor imports problem 2009-11-23 22:44:42 +00:00
David Rose eaa2163cb0 fix problem with non-unique task names 2009-11-23 21:07:42 +00:00
David Rose c08296e27f createReady() is better as a method than a global event 2009-11-23 20:55:09 +00:00
David Rose cb0fd70fe6 osx build issues 2009-11-23 20:17:36 +00:00
David Rose d3bc7e497d remove annoying error message for now 2009-11-23 19:20:44 +00:00
David Rose d4679444ef minor distributed object fixes 2009-11-22 19:32:32 +00:00
David Rose 1d1eafcb70 typo 2009-11-22 00:14:55 +00:00
David Rose 7544008e72 FileDescription is sometimes displayed as the only text for the contents 2009-11-21 23:27:08 +00:00
David Rose 2d32638895 onPluginFail for IE 2009-11-21 23:16:03 +00:00
David Rose 2b004124f9 protect better against malicious directory naming 2009-11-21 22:04:38 +00:00
David Rose 66f88cd348 ensure executable bit is set 2009-11-21 20:57:28 +00:00
David Rose 8763e10c2f whoops, unintended commit again 2009-11-21 20:47:58 +00:00
David Rose 09483f7133 don't needlessly redownload contents.xml 2009-11-21 20:47:07 +00:00
David Rose 82f49bb352 update.rdf files 2009-11-21 19:06:07 +00:00
David Rose a0c7fe7a81 minor comment fix 2009-11-21 19:05:40 +00:00
David Rose f5e2e89d18 onPluginFail 2009-11-21 17:37:09 +00:00
rdb d60e61993e This should fix the eggcacher/packpanda problems on Windows, I think. 2009-11-21 15:45:21 +00:00
rdb d2576e10a1 Er, why expose libpandaskel through the 'panda3d' package? 2009-11-21 12:02:43 +00:00
David Rose 643715788e build on mac 2009-11-21 01:32:10 +00:00
David Rose fc10c7c5a0 further interface generalizations 2009-11-21 01:20:55 +00:00
Darren Ranalli ac091ce40e HTMLStringToElements adds comments to force tag closers 2009-11-21 01:18:25 +00:00
Darren Ranalli 78476db3cb added HTMLStringToElements and str2elements 2009-11-20 22:43:35 +00:00
Darren Ranalli be6d143399 copied from recaptcha-client-1.0.5 2009-11-20 22:42:29 +00:00
David Rose 381c544e7f rmtree first 2009-11-20 19:02:27 +00:00
David Rose 6785b6abcc chmod 2009-11-20 15:21:26 +00:00
David Rose a6a0de068e xpi output 2009-11-20 02:10:37 +00:00
David Rose daf9c87a05 Description.plist 2009-11-20 02:05:13 +00:00
Arkady Trestman 15cc76a5fc a better way to select 2009-11-20 01:50:41 +00:00
David Rose 426f96e66b alt_host affects log name, prc name, start dir 2009-11-20 00:43:30 +00:00
David Rose 1972536934 revert unintended checkin 2009-11-20 00:24:49 +00:00
David Rose a725d42db1 splash_img shouldn't also apply to buttons 2009-11-20 00:05:04 +00:00
David Rose 4631711957 support host_dir 2009-11-19 23:59:04 +00:00
Darren Ranalli 95bff4b0e0 removed unused variable 2009-11-19 23:47:24 +00:00
David Rose 0bee8b9fbf protect against objects that have no str() representation 2009-11-19 23:34:29 +00:00
Darren Ranalli 3b0682d19f head and body tags of landing page exposed as ElementTree.Elements 2009-11-19 22:43:21 +00:00
David Rose 43bfae1dd1 bgcolor etc, for osx 2009-11-19 22:03:03 +00:00
David Rose 2fa9ac5c76 bgcolor, etc for win32 2009-11-19 21:48:49 +00:00
David Rose 902ab1111a bgcolor, fgcolor, barcolor 2009-11-19 21:37:52 +00:00
David Rose eda65fe33f fix initial display of default image 2009-11-19 20:41:14 +00:00
David Rose abbbb21a8e some more explicit control over connection parameters 2009-11-19 02:37:09 +00:00
David Rose 6a5dcc40e8 minor comment update 2009-11-18 22:12:02 +00:00
David Rose a749fd47cd increment P3D_API_VERSION to 9 2009-11-18 21:16:09 +00:00
David Rose 8c3d9c16f9 explicit window_handle type, for mac 2009-11-18 19:50:17 +00:00
David Rose d0d2ac4fa0 explicit window_handle type for win32 2009-11-18 19:36:45 +00:00
David Rose 21aad12650 move towards explicit handle type in P3D_window_handle 2009-11-18 19:26:39 +00:00
David Rose 3ea273ddb6 compile against xulrunner 1.9.0 also 2009-11-18 18:07:29 +00:00
David Rose f582d8f950 add forceYield(), considerYield() at this level too 2009-11-18 15:20:48 +00:00
David Rose 2e725272ab case inconsistency: Plug-in -> Plug-In 2009-11-18 15:11:08 +00:00
rdb d0c833d2ea Provide libp3vision as separate package ('vision') 2009-11-16 13:21:00 +00:00
rdb e9c52233f8 Allow "from panda3d.vision" imports (from libp3vision) 2009-11-16 13:14:22 +00:00
rdb a6d3da5eb9 Much better solution for Python 2.4 + 2.5 ;-) 2009-11-16 08:12:16 +00:00
rdb 7ee08a75a5 int## -> int##_t to fix compile errors with Xulrunner SDK 1.9.1 2009-11-15 09:54:25 +00:00
David Rose 0e51a88e46 fixes 2009-11-14 17:33:18 +00:00
David Rose 6e8cedfcfb fix issues with active_img 2009-11-13 18:09:55 +00:00
David Rose 87f57dd710 fix onwindowattach/detach 2009-11-13 01:22:05 +00:00
Arkady Trestman 447684ec4e clearing sceneGraphUI panel after File->New 2009-11-11 21:10:43 +00:00
Bei Yang 067fc6219d Shouldn't need samples to build an install. 2009-11-11 18:24:11 +00:00
Arkady Trestman ca32727cc5 fixed a problem with hierarchy loading from file 2009-11-11 02:37:44 +00:00
David Rose 3c05002019 don't remove bundle, we might need it 2009-11-10 22:30:11 +00:00
David Rose a927aedf52 onwindowattach, onwindowdetach 2009-11-10 22:28:46 +00:00
David Rose b4df14be69 typo 2009-11-10 22:27:57 +00:00
Arkady Trestman bc84a2c412 fixed a problem with adding a pandaObject tree branch when adding a new pandaobject 2009-11-10 21:11:39 +00:00
David Rose 29c61ac510 fix bug causing server to stop listening 2009-11-10 13:17:22 +00:00
Gyedo Jeon 8c3ebf7a52 Added custom hotkey support 2009-11-10 00:57:31 +00:00
Gyedo Jeon df47bb697e Changed how to handle hotkeys to support custom hotkey mapping 2009-11-10 00:54:49 +00:00
David Rose a745e451db protect against python 2.4 2009-11-08 21:55:56 +00:00
David Rose a357f6b8cd find dc files 2009-11-08 19:30:27 +00:00
David Rose d8471bdf32 fixes for public net interface 2009-11-08 19:30:04 +00:00
rdb aee6aabe8f OSX 10.4 installer: no relocation, require root authorization 2009-11-08 16:42:56 +00:00
rdb 455fbce7ef Don't suppress dynamicLibrary-loading error messages 2009-11-08 14:23:52 +00:00
Arkady Trestman 29ad1a585c installed interractive ShowPandaObjects 2009-11-07 01:59:16 +00:00
David Rose 8d592a03e1 build an xpi installer 2009-11-07 00:47:03 +00:00
Arkady Trestman 1319d9abcb added handling of PandaObject children 2009-11-06 23:42:48 +00:00
Darren Ranalli b998a1db59 added SerialMaskedGen 2009-11-05 23:35:10 +00:00
rdb 72ad227e6b Support showing of eula/license before installation 2009-11-05 09:11:51 +00:00
rdb 29966973a9 Disable relocation on OSX to prevent issue with Panda3D.app being put in the wrong location 2009-11-05 08:54:06 +00:00
David Rose 573d69caf5 fix some alt_host issues 2009-11-05 02:59:52 +00:00
Gyedo Jeon 309e0713a5 Fixed a bug of keep refreshing property UI 2009-11-04 22:39:42 +00:00
Gyedo Jeon b1797a99e7 Made value entered by user to be respected 2009-11-04 21:46:35 +00:00
Redmond Urbino f55625e7b5 add definitions for the new toontown login response 2009-11-04 20:16:20 +00:00
rdb 4f25076252 support querying __file__ 2009-11-04 18:19:39 +00:00
David Rose bd2803089a some architecture issues 2009-11-04 16:58:28 +00:00
rdb 603ffa7215 New panda3d.* import structure 2009-11-04 16:15:49 +00:00
rdb 8f83314ae3 New panda3d.* import structure 2009-11-04 16:02:49 +00:00
Gyedo Jeon d1f459cf1d Made gridSize option to be saved, reloaded 2009-11-04 02:13:39 +00:00
David Rose 7984eecde7 add a horizontal scrollbar too 2009-11-04 00:28:10 +00:00
David Rose a5bc4d93a1 remove drose 2009-11-04 00:09:28 +00:00
David Rose a784d86581 add certlist package for pre-approved certificates 2009-11-04 00:09:01 +00:00
David Rose b495586f64 fix crash? 2009-11-03 22:34:09 +00:00
David Rose 7ca831ae0b support builds with WebKit's NPAPI, as well as Mozilla's 2009-11-03 22:29:30 +00:00
Gyedo Jeon bedc7afaca Added gridSize option 2009-11-03 21:26:26 +00:00
Hubert Grzeskowiak 617e9d5e8c Applied patch from Nemesis13 partially ;-) 2009-11-03 18:08:29 +00:00
David Rose ffb437247f protect from newer flex 2009-11-02 23:46:45 +00:00
Arkady Trestman c7e7cc8c1c added scene graph 2009-10-30 23:49:13 +00:00
Arkady Trestman 4c682f1ef3 initial commit 2009-10-30 23:48:48 +00:00
David Rose 84df5b52d4 icon for panda3d.exe, panda3dw.exe 2009-10-29 23:59:10 +00:00
David Rose 4e5c1e5667 missing file 2009-10-29 23:26:56 +00:00
David Rose 08d7abb8fb version numbers on plugin dll's 2009-10-29 23:21:23 +00:00
David Rose 189a380f04 don't rely on packagemaker's exit status 2009-10-29 22:08:50 +00:00
rdb 521f5491b2 Bugfix when compiling for 10.4 on a 10.5 OSX install 2009-10-29 08:56:26 +00:00
rdb 56948b4c28 Workaround for missing LIBPANDAEAY.DLL and LIBPANDASSL.DLL on windows 2009-10-28 10:53:55 +00:00
David Rose e338f35a9e matches_run_origin, matches_script_origin 2009-10-27 23:35:06 +00:00
rdb af57d1ba34 Fix error on OSX 2009-10-27 14:56:41 +00:00
David Rose 19c0a94d7e support codebase 2009-10-27 09:47:50 +00:00
David Rose fb599ccac9 support 10.4 2009-10-27 09:36:19 +00:00
David Rose 06f05d2ecc failed attempt to run on osx 10.4 2009-10-27 00:41:03 +00:00
David Rose 0b80f4f933 version for ms too 2009-10-26 23:29:56 +00:00
David Rose 0d28474f19 remove unused dependency on hashlib; not available in python 2.4 anyway 2009-10-26 23:10:04 +00:00
David Rose c4ac2aac6a oops 2009-10-26 23:05:35 +00:00
David Rose 2e5da4019f experiment with cab files 2009-10-26 22:56:03 +00:00
David Rose ab3e13403f some small fixes, starting _web_hostname integration 2009-10-26 20:19:19 +00:00
rdb 0c58c9dfc1 Overlooked one minor detail (mac) 2009-10-26 15:13:40 +00:00
rdb 8d2ab9625a Fixes for Mac 2009-10-26 15:12:23 +00:00
rdb 79280e0303 Make make_installer.py entirely independent of Panda3D by replacing Panda3D-specific stuff with built-in Python equivalents. Sorry David, also had to remove your image-resizing code. 2009-10-26 15:00:32 +00:00
David Rose 4509e4354c downloadRemainingSeconds 2009-10-26 09:28:50 +00:00
David Rose a36bc45d08 a few tweaks 2009-10-25 21:39:41 +00:00
rdb fa500f10a3 Do we really need to import 'direct' ? 2009-10-25 18:23:05 +00:00
rdb 727c37d414 Composite file for (lib)p3dpython(w) 2009-10-25 15:28:47 +00:00
David Rose 1e0cf1664a fix 'Couldn't find package blah in contents.xml' problem 2009-10-25 00:34:27 +00:00
David Rose 2173055841 fix problem with splash images not showing up initially 2009-10-25 00:19:03 +00:00
David Rose 3977a68842 fix obscure firefox crash 2009-10-24 23:35:17 +00:00
David Rose 884c389bad using bundles (and LSUIElement=1) to better manage OSX dock icons 2009-10-24 23:24:34 +00:00
rdb 9fcb863c04 Force version number input, ship both 'panda3d' and 'Panda3D.app' on OSX, and choose an Identifier that doesn't conflict with the app bundle's. 2009-10-24 18:45:15 +00:00
David Rose 46d632f82a Panda3DRuntime -> Panda3D 2009-10-24 16:51:42 +00:00
rdb 536ef4f5f5 Remove pkg if it already exists 2009-10-24 10:53:58 +00:00
rdb b87b855eff Remove dmg if it already exists 2009-10-24 10:06:27 +00:00
rdb ef82e8d8c8 Panda3D.app is a directory, not a file 2009-10-24 09:56:20 +00:00
rdb 54ba9f4070 Changes to OSX installer for new Panda3D.app bundle 2009-10-24 09:53:38 +00:00
David Rose fe38ff0da5 ignore weird command-line settings 2009-10-24 05:26:23 +00:00
David Rose 7547ab8cd4 bundle-making script for the standalone app 2009-10-24 01:08:07 +00:00
David Rose c7309c1824 compile warning 2009-10-24 01:07:46 +00:00
David Rose 4d271429da eh, just use the posix filename after all 2009-10-24 01:06:44 +00:00
David Rose be9798c601 typo 2009-10-24 00:55:18 +00:00
David Rose bd79880ee1 make a mac-friendly application bundle for standalone panda3d 2009-10-24 00:45:24 +00:00
rdb 9fe354cd7f Smart OSX framework extraction and inclusion 2009-10-23 19:25:12 +00:00
David Rose ddea543868 optional net and nativenet 2009-10-23 19:19:07 +00:00
David Rose 7e565c2a49 fix safari crash 2009-10-23 16:27:47 +00:00
David Rose c015814321 some more error cases 2009-10-23 00:25:50 +00:00
Darren Ranalli 4bc0c2b591 corrected implementation of SkinningReplyTo.__getattr__ 2009-10-22 23:19:21 +00:00
David Rose b8f7cbd532 oops typo 2009-10-22 20:35:55 +00:00
David Rose 5aee8bd4dc get_panda_script_object log output 2009-10-22 20:35:03 +00:00
David Rose eaee7a00f8 apple build issue 2009-10-22 20:33:04 +00:00
rdb df9edbe1dd Print a somewhat more useful message when the -i option is omitted 2009-10-22 14:01:43 +00:00
rdb 80196acac8 Installer package creation for OSX 2009-10-22 12:59:27 +00:00
David Rose 04ef8343bf exclude libpthread.so 2009-10-22 07:09:28 +00:00
David Rose 2dbd154536 better handling of some startup failures; don't make a osx gui app unless necessary 2009-10-22 07:05:51 +00:00
David Rose 3f5dd0d039 report panda3d version 2009-10-21 19:57:45 +00:00
David Rose 0fd8c7a18d more super-mirror stuff 2009-10-21 19:45:57 +00:00
David Rose aaf4195dfb super-mirror 2009-10-21 18:38:29 +00:00
David Rose 691ee623f4 add direct.filter 2009-10-21 15:49:59 +00:00
David Rose 27e7a3c475 change linux back to ~/.panda3d 2009-10-21 15:43:13 +00:00
rdb c84026fd51 Add missing atlbase.h include 2009-10-21 15:34:08 +00:00
David Rose dc06cd6d7a fix non-relative p3d urls 2009-10-20 23:17:36 +00:00
David Rose 54e34d4672 use ~/Library/Caches/Panda3D on Mac, ~/Panda3D on Linux 2009-10-20 23:08:28 +00:00
David Rose b86a9f0d8d reduce download spam in log 2009-10-20 20:23:31 +00:00
David Rose f998a9cf13 add sha 2009-10-20 19:51:05 +00:00
David Rose 7e9618a438 add models package 2009-10-20 19:49:27 +00:00
David Rose d660b6934b separate out CompilationEnvironment structures 2009-10-20 19:27:10 +00:00
David Rose e9f98e18ef save log for non-console version 2009-10-20 19:11:40 +00:00
rdb 6eee4b9ace Replace remaining instances of Disney license with CMU license 2009-10-20 08:16:12 +00:00
Darren Ranalli efca6018ed support other response types in proxy object 2009-10-20 01:02:12 +00:00
Darren Ranalli faa73fad5f better support for head sub-tags on a per-page basis 2009-10-19 23:54:38 +00:00
David Rose 8e0aed64a7 fix a race condition, and detect some startup errors better 2009-10-19 23:39:19 +00:00
David Rose 10e4427860 fix firefox crash 2009-10-19 22:29:39 +00:00